Location: Cutler
(25.6150°N, 80.3110°W)
Time: 10:33:15
(UTC-04:00)

Vanguard 1 - Pass Details

Date: 30 January 2018
Orbit: 650 x 3833 km, 34.3° (Epoch: 24 May)

Event Time Altitude Azimuth Distance (km) Brightness Sun altitude
Rises 18:26:05 0° 216° (SW) 3,615 13.9 -5.6°
Reaches altitude 10° 18:29:25 10° 202° (SSW) 2,365 12.6 -6.3°
Maximum altitude 18:33:30 24° 149° (SSE) 1,410 10.8 -7.2°
Drops below altitude 10° 18:37:03 10° 94° (E) 2,040 11.1 -8.0°
Enters shadow 18:37:23 - 92° (E) 2,148 11.2 -8.1°
Sets 18:39:41 0° 79° (E) 2,994 - -8.6°
